Theta_e
342 342 342 345 346 347 347 347 347 346 346 346 347 347 347 347 347 346 346 346 345 344 343 343 343 344 343 343 343 342 339 338 336 336 336 338 339 340 341 341 342 341 341 340 336 333 333 336 337 338 339 338 339 338 338 336 335 335 336 336 336 336 336 336 335 335 334 335 335 335 335 334 335 336 335 334 334 336 336 336 335 334 334 334 334
343 343 344 345 347 347 347 347 348 347 346 346 346 347 347 347 347 346 345 346 345 345 344 344 343 343 343 343 344 343 342 341 340 337 336 336 338 340 341 341 341 341 341 341 340 338 336 335 336 336 337 338 338 338 338 338 337 336 337 337 337 336 336 336 335 335 335 335 335 335 334 334 334 334 334 333 333 333 333 333 332 333 333 334 334
343 343 344 345 345 346 347 347 348 347 346 346 346 347 347 347 347 345 345 344 344 344 344 344 343 343 342 343 343 343 343 342 341 340 338 337 338 339 340 340 340 340 340 340 340 341 339 337 336 335 335 335 337 338 339 339 339 338 338 338 338 338 338 337 336 336 336 336 336 335 335 334 334 333 333 332 332 332 332 333 334 335 336 336 336
344 344 344 344 345 346 346 347 346 347 348 347 346 346 346 346 346 345 343 342 343 343 343 343 342 341 342 342 342 342 342 341 341 341 340 340 339 339 339 340 341 341 340 339 339 340 340 340 340 338 337 336 335 335 336 338 339 339 339 338 338 339 339 338 338 337 337 336 336 336 335 336 335 334 334 334 335 335 335 336 337 338 338 338 337
345 345 344 344 344 346 347 348 347 347 346 345 346 346 344 344 344 343 342 341 341 341 342 342 341 341 341 340 340 340 340 340 340 341 341 341 341 341 340 339 339 340 340 340 340 340 340 340 340 340 340 339 338 337 336 337 337 338 338 337 337 339 339 338 339 339 338 337 337 337 337 337 336 336 337 337 338 338 338 338 337 337 338 338 338
345 345 345 345 344 344 347 347 348 347 345 344 346 346 343 343 343 342 341 340 340 340 341 341 340 340 340 340 340 339 338 338 339 340 342 342 341 341 341 340 339 339 339 340 340 340 340 340 340 340 340 340 340 340 339 338 338 338 338 337 337 338 339 339 339 339 339 339 338 338 338 338 338 338 339 338 338 338 338 338 338 338 338 339 339
345 346 345 345 345 344 346 346 347 347 346 345 346 346 344 343 342 341 340 338 338 338 340 341 340 340 340 340 340 339 338 338 339 340 341 342 341 340 341 341 340 339 339 339 340 340 340 340 340 341 340 340 340 340 340 340 340 340 340 340 340 340 340 340 340 340 339 340 339 340 339 339 340 339 339 339 339 339 339 339 339 339 339 339 339
346 345 345 345 344 344 346 347 347 346 346 346 347 347 345 343 342 341 340 337 336 336 338 339 340 339 339 339 340 339 338 338 339 340 341 342 341 340 341 341 341 340 341 340 339 340 339 340 340 341 341 341 340 340 340 341 342 341 341 341 341 341 341 340 340 340 339 339 339 339 340 340 340 340 339 339 340 339 339 339 339 339 339 339 340
346 345 344 344 345 345 346 347 347 347 347 346 347 348 345 343 343 342 341 338 336 335 336 338 338 338 337 338 339 339 339 339 340 340 340 341 340 340 342 342 341 341 341 341 339 339 338 338 339 341 341 341 340 340 340 340 342 341 341 341 341 340 341 341 340 340 339 339 339 339 339 339 338 339 339 339 339 340 339 339 339 339 339 339 339
345 345 343 344 345 346 345 345 346 346 347 347 347 348 346 343 343 343 342 338 336 336 337 337 337 337 336 337 338 340 339 339 340 341 341 341 340 340 341 342 341 341 341 341 340 339 338 337 338 339 340 340 341 341 340 340 341 341 341 341 341 341 341 340 340 340 339 339 338 338 338 338 337 337 338 337 338 338 337 336 336 335 335 335 336
342 343 342 342 343 344 344 345 346 346 346 346 346 347 346 343 343 343 340 336 334 334 336 336 336 337 336 337 338 339 339 339 340 341 342 342 341 340 341 341 341 340 340 340 340 339 338 337 337 338 338 339 339 340 340 340 340 340 340 340 341 340 340 340 340 339 339 339 339 338 337 336 334 332 331 330 330 330 329 328 327 326 325 326 327
338 339 339 340 341 341 342 345 348 347 346 345 345 347 347 345 345 344 339 334 332 334 335 335 334 336 336 336 337 338 338 339 340 341 342 342 342 342 340 340 340 340 340 340 340 340 339 338 338 338 338 338 338 338 339 339 339 338 338 339 339 339 339 339 339 339 338 338 336 334 332 329 326 323 322 321 321 321 320 320 319 319 318 319 319
339 338 338 339 340 340 340 344 348 348 346 345 345 346 348 347 346 345 340 335 334 334 335 334 332 334 334 335 336 337 338 338 339 341 342 343 343 342 340 340 340 340 340 340 339 338 338 338 338 338 339 338 337 336 336 336 337 336 334 334 334 334 335 335 336 337 335 333 330 326 324 321 319 319 319 318 318 318 318 318 318 318 318 317 317
342 340 340 339 339 339 339 341 346 349 347 345 345 346 348 347 347 346 341 336 334 335 336 334 333 334 334 335 336 337 338 338 339 340 342 343 343 342 342 341 340 340 339 337 334 333 331 331 332 335 338 338 338 336 335 335 335 334 331 329 328 328 329 330 331 332 330 326 323 320 319 318 319 318 318 318 318 318 317 317 317 317 317 317 317
345 343 341 339 337 338 338 340 344 349 348 346 345 346 348 347 346 346 340 335 335 336 336 336 334 335 335 336 338 338 338 338 337 338 341 342 342 342 341 339 339 338 336 334 332 330 327 325 325 327 330 334 336 336 336 336 335 333 329 325 324 323 323 325 327 326 323 321 319 318 318 318 318 317 317 317 316 317 317 317 317 317 317 317 317
346 343 340 338 337 337 338 338 342 347 348 347 345 346 347 346 345 343 338 334 336 337 337 337 336 337 336 337 338 338 338 337 336 338 341 341 340 340 339 338 337 336 334 333 333 332 330 328 325 324 324 327 330 333 336 336 335 333 326 322 322 321 320 321 322 320 319 318 318 318 318 317 317 317 317 317 317 317 318 318 318 318 319 319 319
346 344 340 339 338 337 337 338 341 345 347 346 345 346 347 345 343 341 336 334 335 336 337 338 338 338 337 337 337 337 336 336 335 337 340 341 340 339 339 338 337 335 334 333 333 333 333 330 327 324 323 323 324 327 330 332 334 331 323 320 320 319 319 319 319 319 318 318 317 317 318 318 319 319 319 319 319 319 319 320 320 320 320 320 320
347 345 343 342 340 338 336 337 339 342 344 345 345 345 345 344 343 341 337 335 335 336 336 337 337 338 337 336 336 335 335 334 334 338 341 341 339 339 339 338 336 335 333 332 333 334 335 331 326 326 327 325 324 323 324 326 328 326 321 319 320 319 319 319 319 318 317 317 317 319 319 320 320 320 321 321 321 321 320 321 321 321 321 321 321
347 347 345 345 342 339 336 336 337 340 343 343 344 345 344 344 344 341 338 337 336 334 335 336 336 337 336 336 335 335 335 335 335 337 339 340 339 337 338 338 337 336 335 335 334 334 336 332 328 329 329 325 324 323 321 322 322 321 320 320 320 320 319 318 318 318 318 319 319 320 321 321 321 322 321 321 321 321 321 321 322 322 322 322 322
347 347 347 347 345 340 336 336 337 339 342 342 342 344 345 344 344 342 338 337 336 333 333 334 334 334 335 334 336 336 336 336 337 338 339 339 339 337 337 338 337 337 336 337 336 336 336 334 331 331 329 326 326 324 321 321 320 320 320 320 320 319 319 318 318 318 319 320 320 321 321 322 322 322 321 321 321 322 321 321 322 322 322 322 322
347 347 347 347 346 343 339 337 337 339 340 341 341 343 345 345 345 344 339 336 335 333 332 333 332 333 334 335 336 337 337 337 338 339 339 340 340 338 337 337 336 336 337 337 337 337 336 335 334 333 332 332 330 327 324 323 323 322 321 321 320 319 319 319 319 320 320 321 321 321 321 321 320 320 320 320 320 320 321 321 321 322 323 322 322
346 347 346 346 346 344 341 339 338 339 340 340 340 342 345 345 345 346 343 338 336 334 333 333 333 334 335 335 336 337 337 338 339 339 339 339 339 338 338 337 336 336 337 337 338 338 338 337 336 334 334 334 333 331 329 329 328 327 325 324 323 322 321 321 321 321 321 321 321 321 321 320 320 320 320 320 320 321 321 321 321 322 322 322 323
346 346 345 345 344 344 342 340 339 339 339 339 339 341 344 345 344 345 343 339 336 337 336 334 334 335 336 335 336 337 337 339 340 339 337 337 338 338 337 338 337 336 337 338 338 338 338 338 337 336 335 335 334 333 333 332 332 331 330 328 326 325 324 324 323 323 322 322 322 322 321 321 321 321 321 321 321 322 322 322 322 322 322 322 323
345 344 343 343 342 342 342 341 338 338 338 339 339 341 343 344 344 344 342 339 336 337 337 337 336 337 337 336 334 336 337 338 340 340 337 337 338 339 339 339 339 337 337 338 338 338 338 338 337 337 336 335 335 334 333 333 333 332 332 332 331 328 326 326 325 324 324 323 323 323 323 322 322 322 321 321 322 322 322 322 322 322 322 323 323
341 342 342 342 342 341 340 340 338 338 338 338 339 341 342 343 344 343 343 342 341 340 340 340 339 338 337 335 333 335 336 338 340 340 339 339 339 339 339 340 339 338 338 337 337 337 337 337 336 336 336 336 335 335 334 333 334 334 333 334 334 333 330 328 326 325 325 325 325 324 324 324 323 323 322 322 322 322 322 322 322 323 323 323 323
337 338 339 341 341 340 340 339 338 338 338 339 339 340 342 342 343 343 342 343 344 344 344 344 343 341 338 335 333 333 334 336 339 341 340 340 340 340 340 340 340 339 338 338 337 336 335 335 336 336 336 336 336 336 335 334 334 334 334 334 334 334 334 333 331 328 326 326 326 325 325 324 325 324 324 323 322 322 322 322 323 323 323 323 323
336 337 338 339 340 340 340 339 339 338 338 338 339 340 341 341 341 342 342 343 344 344 344 344 344 343 340 336 332 331 332 333 334 337 339 339 338 339 338 339 340 340 338 338 337 335 335 335 335 335 335 336 336 336 336 335 335 334 334 334 334 334 335 335 335 334 331 329 327 326 325 325 325 325 325 324 323 322 322 322 323 323 324 324 324
337 337 337 338 339 339 339 339 338 337 338 339 339 340 341 341 340 341 341 342 342 343 343 343 343 342 342 337 330 327 329 331 333 334 336 336 336 336 335 336 340 340 339 337 335 333 333 334 333 333 333 334 334 335 336 335 335 335 334 334 334 335 335 335 335 335 335 334 331 328 326 325 325 325 325 325 324 322 322 322 323 323 324 324 324
338 337 337 337 337 338 339 338 338 337 336 337 339 340 341 341 340 340 340 341 342 342 342 342 342 341 342 340 334 328 326 329 331 333 335 334 332 330 330 333 337 340 340 338 333 330 331 331 331 331 331 332 333 334 335 335 334 335 335 335 334 334 335 335 335 335 335 336 335 334 330 327 325 324 325 324 324 322 322 322 323 323 324 324 324
340 339 338 337 337 338 338 338 338 337 336 336 337 338 339 340 340 340 340 341 341 341 341 341 341 341 341 341 339 336 332 329 329 329 331 331 329 326 324 328 333 336 338 337 332 328 329 329 329 330 330 331 332 333 333 333 333 334 334 334 334 334 335 335 335 336 335 335 336 336 335 331 327 325 325 324 324 322 322 323 323 324 324 324 325
341 339 338 337 336 337 337 337 337 337 337 338 338 337 338 339 340 340 340 340 340 341 340 340 341 341 341 341 340 340 339 337 334 332 331 330 328 327 326 326 329 331 334 337 334 328 327 328 328 328 329 329 329 330 330 330 330 332 332 332 333 333 334 335 335 335 336 335 336 336 336 336 332 327 324 324 324 323 323 323 323 324 324 324 324
342 340 339 337 336 336 336 337 337 336 337 338 338 338 338 338 339 339 339 340 340 340 340 340 341 341 341 340 339 339 340 340 339 339 337 334 330 328 328 327 328 329 331 334 334 328 326 327 327 327 327 328 328 328 327 327 327 328 329 329 330 332 333 334 334 335 335 335 335 336 336 336 336 331 326 325 325 325 324 324 324 324 324 324 325
342 341 339 337 336 336 336 336 335 335 336 338 339 338 337 337 337 338 339 339 339 339 339 339 340 341 340 340 339 339 339 339 339 339 340 339 336 333 330 328 327 327 328 330 331 328 325 325 325 325 326 326 327 326 326 327 326 326 327 326 326 328 329 330 331 332 334 334 335 335 335 335 336 334 329 325 324 325 326 325 325 325 325 325 325
343 342 339 337 336 335 336 335 334 334 334 337 339 339 338 337 337 337 338 338 338 338 338 338 338 339 339 338 339 339 339 339 339 339 339 339 339 338 336 333 331 329 327 327 328 327 325 326 326 326 326 326 326 326 325 326 325 326 326 325 324 324 325 326 327 329 330 332 333 333 334 334 335 334 331 327 325 324 325 325 326 325 326 326 326
343 341 340 338 337 336 336 334 333 333 333 336 338 339 338 337 337 338 338 338 338 337 337 337 336 337 337 336 336 336 338 338 337 338 338 338 338 338 338 338 337 337 335 333 331 329 331 333 333 332 332 331 331 330 329 328 327 327 325 324 324 323 323 323 324 325 326 328 329 331 332 333 333 333 331 328 325 325 325 325 325 326 326 327 328
344 342 340 339 338 337 336 334 332 332 333 335 337 338 337 337 338 338 339 339 338 338 337 336 335 335 335 334 334 334 335 336 336 337 337 338 338 338 338 338 337 338 338 339 338 337 338 338 337 336 337 337 336 335 335 334 333 332 330 329 326 324 323 322 322 323 324 324 326 327 329 331 332 331 330 328 326 325 325 326 326 326 327 327 328
345 343 342 340 338 336 335 333 331 331 332 334 336 337 337 337 337 337 337 338 338 338 337 336 335 335 334 333 333 334 335 335 335 336 336 337 338 338 338 338 338 338 339 339 339 340 340 340 339 338 338 338 338 337 337 337 337 337 335 334 332 330 327 325 323 323 323 324 323 324 325 327 329 330 330 330 328 326 325 325 326 327 327 327 328
346 344 342 341 338 336 334 332 331 330 331 333 334 336 336 336 335 335 335 336 337 338 337 336 335 334 334 333 333 334 334 334 334 334 335 336 337 337 337 337 338 339 339 340 340 340 341 341 340 340 339 339 339 338 337 338 339 339 337 336 334 334 334 331 329 328 327 326 324 324 324 324 326 328 329 331 331 329 327 327 326 326 327 326 327
346 344 343 341 339 337 334 333 331 330 331 332 333 334 335 334 334 334 334 334 335 336 336 335 335 334 333 333 333 334 333 334 334 333 334 335 336 336 336 336 337 338 338 338 338 339 340 341 341 340 338 338 338 337 336 337 338 338 337 336 334 334 335 335 335 335 334 333 331 330 328 327 326 326 327 329 331 331 330 329 328 326 326 326 327
345 344 343 341 340 337 335 333 332 330 330 330 332 333 334 334 333 333 333 333 334 334 334 335 334 334 332 333 333 333 333 333 333 334 335 335 335 336 335 335 336 337 337 337 338 339 339 340 340 338 337 337 337 336 335 335 336 334 334 336 336 334 334 335 336 336 337 337 337 335 334 333 331 329 328 327 328 329 329 330 329 327 326 326 326
343 342 342 342 340 338 335 333 332 331 330 330 330 331 332 332 332 332 332 333 333 333 334 334 334 333 332 332 333 333 333 333 334 334 335 335 335 336 335 335 336 337 338 338 339 340 340 340 339 338 338 338 338 338 336 337 337 336 337 339 339 337 338 340 339 340 341 340 340 339 338 337 337 335 333 330 329 328 327 328 329 328 327 327 326
343 342 341 341 340 338 336 334 333 331 331 329 329 329 329 329 330 330 330 331 332 333 333 334 334 333 332 333 332 333 333 334 334 334 335 335 337 337 336 336 338 339 340 341 342 342 342 342 341 341 342 342 342 342 343 344 344 345 346 347 347 346 347 347 346 346 346 346 346 345 344 343 341 340 338 338 337 333 330 329 328 326 326 327 327
344 343 341 341 339 338 337 335 334 332 331 329 329 329 328 328 329 329 329 330 331 331 332 332 332 332 332 332 333 333 334 335 335 336 337 338 339 339 339 339 341 343 344 345 345 345 345 346 345 346 347 348 348 349 350 351 352 353 353 353 352 351 350 350 351 351 352 351 349 348 347 346 344 343 344 343 342 340 338 335 332 328 326 326 327
345 344 343 340 339 338 338 336 334 333 330 329 329 329 328 329 328 329 329 329 330 331 331 332 332 332 332 333 334 335 335 336 337 338 339 340 341 342 343 343 344 346 347 348 349 349 350 350 350 351 352 352 353 355 355 356 357 356 356 354 352 349 349 350 351 352 353 351 348 345 345 346 346 346 346 345 343 342 339 336 334 332 329 326 326
347 346 344 341 339 339 338 336 334 332 331 330 329 329 329 329 329 329 329 330 330 331 331 331 332 333 334 335 335 336 336 338 339 341 342 343 344 346 346 347 348 348 349 351 352 352 353 353 353 354 354 355 356 357 357 358 358 357 356 352 349 349 350 350 350 351 350 347 345 343 345 348 347 346 345 345 345 343 340 337 335 335 333 329 326
349 347 345 342 340 338 337 336 334 333 332 331 330 330 330 331 331 330 330 331 331 332 332 334 334 334 336 336 338 338 338 341 342 343 344 346 347 348 349 350 351 352 352 353 354 355 355 355 356 356 357 358 357 358 359 358 356 354 352 350 350 351 351 349 350 350 348 346 346 345 347 351 351 348 347 347 346 346 345 343 341 340 338 334 329
351 349 347 345 342 339 338 337 336 334 333 332 332 332 331 331 332 332 332 333 334 334 334 334 335 336 337 338 339 340 341 343 344 345 347 349 350 351 352 352 353 353 354 356 356 357 357 357 357 358 358 358 358 358 359 359 357 354 350 348 351 352 350 350 351 351 348 347 348 346 346 351 353 351 351 352 350 349 347 346 346 344 342 338 333
353 352 351 349 345 342 340 338 337 335 333 333 333 333 333 333 334 334 334 335 336 336 335 336 336 337 338 341 342 342 343 345 346 347 349 351 352 353 354 354 354 356 355 356 357 357 358 358 358 358 357 358 358 358 359 358 358 356 353 351 353 352 350 351 352 353 350 349 350 350 348 350 351 350 351 353 352 351 350 349 347 346 344 342 337
354 355 354 352 349 347 345 343 340 336 333 334 334 334 335 335 336 336 337 337 337 337 337 337 338 340 341 342 343 345 346 346 348 349 351 353 353 354 355 355 356 357 356 357 358 358 358 358 358 359 358 357 358 358 358 357 357 357 355 355 355 355 353 353 353 354 353 352 353 352 349 348 350 349 349 351 351 350 350 349 348 347 345 343 341
356 356 356 355 354 352 350 348 344 340 336 334 335 335 336 337 337 338 337 339 339 339 339 340 341 342 343 344 345 347 347 348 349 352 353 353 354 355 356 356 357 357 357 358 359 359 360 359 358 359 359 358 358 357 357 358 358 357 356 353 353 354 354 353 353 353 352 352 352 352 349 349 350 349 347 347 348 348 348 349 348 345 343 343 343
357 357 358 357 357 356 355 352 350 347 342 339 339 339 338 338 339 338 339 341 341 341 341 342 343 344 345 346 347 348 349 350 352 354 354 356 356 357 357 358 357 358 359 359 360 360 360 359 359 359 358 358 357 357 357 356 353 349 346 342 342 346 349 350 350 350 351 350 349 348 348 348 349 348 346 345 345 346 346 347 347 345 343 343 343
Wind_Speed
8 8 8 7 6 5 5 5 4 3 3 3 2 2 2 1 0 1 2 3 3 3 2 1 2 2 2 3 4 3 3 4 5 4 3 3 4 4 4 3 2 2 2 2 2 3 5 4 3 2 1 0 1 1 2 1 1 1 1 1 0 0 1 1 2 2 2 2 3 3 4 4 5 5 5 5 5 6 6 7 7 7 7 7 7
8 7 7 6 5 5 4 4 4 3 3 2 2 1 1 1 1 1 2 2 2 2 2 2 2 1 2 3 3 3 3 3 3 3 3 3 3 3 3 3 2 1 1 1 2 2 4 4 3 3 2 1 1 0 0 0 0 0 1 1 1 1 2 3 3 3 3 3 4 4 5 5 5 5 5 5 5 6 6 7 7 7 6 6 7
8 7 6 5 4 4 3 3 2 2 2 2 1 1 1 2 1 2 3 3 3 3 2 1 2 2 3 3 4 4 3 2 3 3 3 2 2 2 3 3 2 1 1 1 1 1 2 2 2 2 3 2 2 2 2 2 1 1 1 2 3 3 3 4 4 4 4 5 5 5 6 6 6 6 6 6 6 6 6 6 7 6 7 7 8
9 7 6 5 4 3 2 2 2 1 1 0 1 2 2 3 3 4 4 4 3 3 3 2 3 4 5 5 5 5 4 3 3 2 2 2 2 2 2 2 2 1 1 1 0 0 0 1 1 1 1 1 2 3 3 3 3 3 3 3 4 4 4 5 5 5 5 6 6 6 7 6 6 6 6 6 6 6 6 7 7 8 8 9 9
9 8 7 5 4 4 3 3 2 1 1 2 2 3 3 4 5 6 5 4 3 3 3 3 4 4 5 6 6 7 6 5 3 2 2 1 1 1 1 2 1 2 1 1 1 1 1 1 1 1 1 0 1 1 2 3 3 4 4 4 5 5 5 6 6 6 6 7 7 7 7 7 7 7 7 7 7 8 8 8 9 9 10 10 10
10 9 7 6 5 5 4 4 3 2 2 3 3 4 4 5 6 8 6 5 4 4 4 4 4 4 5 5 6 6 6 5 4 3 2 1 1 1 1 1 1 1 1 1 2 2 2 2 2 2 2 1 1 1 1 2 3 3 4 4 5 5 6 6 7 7 7 7 8 7 8 8 8 8 8 9 9 9 9 10 10 11 11 11 11
10 9 8 7 6 4 4 4 4 3 3 3 4 5 6 6 7 8 7 5 4 4 4 5 5 4 5 5 5 5 5 4 4 3 2 1 0 1 1 1 1 1 1 1 1 2 2 3 3 2 2 2 3 2 2 3 3 4 4 4 5 6 6 6 7 7 8 8 8 8 8 8 8 9 9 9 10 11 11 11 11 11 12 12 11
10 9 7 7 6 5 4 4 3 3 3 3 4 5 6 7 7 8 7 6 4 3 5 6 6 6 5 5 4 4 4 3 3 2 2 1 1 1 2 1 1 1 1 1 1 2 3 3 4 3 3 4 4 4 4 4 4 5 5 6 6 6 7 7 7 7 8 8 8 8 8 8 9 9 9 10 10 11 11 11 11 11 11 11 10
10 9 8 7 6 5 5 5 4 3 3 3 4 5 6 7 8 8 7 6 5 4 5 7 7 8 6 6 5 4 3 2 2 2 2 1 1 1 1 2 2 1 2 2 2 2 2 3 4 4 4 4 4 4 4 5 5 5 6 6 6 7 7 8 7 8 8 8 8 8 9 10 10 9 9 9 9 10 10 10 10 9 9 9 9
11 10 9 7 6 5 5 5 5 4 3 4 5 6 6 8 9 8 7 7 6 6 6 7 8 9 8 7 6 5 4 2 2 2 2 1 1 1 1 2 2 2 2 2 2 2 2 3 3 4 4 5 5 5 5 5 6 6 6 6 6 7 7 7 7 7 8 7 8 8 8 9 9 8 8 8 8 8 8 8 8 8 8 8 8
12 12 10 8 7 6 5 4 4 4 5 5 6 7 8 9 9 7 5 6 6 7 8 7 8 10 9 8 7 6 5 3 2 2 2 1 1 0 1 2 2 2 2 1 2 2 2 3 3 3 4 5 5 6 6 6 6 6 6 6 6 7 7 7 7 7 7 7 7 7 7 7 7 6 7 7 7 6 6 7 7 7 7 7 7
13 13 12 9 8 7 6 5 5 5 5 5 5 7 8 7 8 8 5 5 5 7 8 8 9 10 10 9 8 7 6 4 3 2 1 1 1 0 2 2 1 1 1 1 2 2 3 3 4 4 4 5 5 5 6 7 6 6 6 7 7 7 7 7 7 7 7 7 7 7 6 6 5 5 6 6 6 6 6 6 6 6 6 6 7
13 13 12 11 10 9 8 7 6 6 5 5 5 6 7 6 7 8 6 5 5 6 8 9 10 10 9 9 9 8 7 5 3 2 1 1 0 1 2 1 1 0 1 1 1 2 3 3 4 5 5 5 5 6 6 6 6 6 6 7 7 7 8 8 8 8 7 7 6 6 5 5 5 6 6 6 6 6 6 7 7 7 7 7 7
13 13 12 11 11 11 10 8 7 6 5 6 7 7 7 7 8 8 7 6 5 6 8 9 10 9 8 8 8 7 7 6 4 2 1 0 1 2 2 1 1 1 1 1 2 2 3 3 4 5 5 5 6 6 6 6 6 5 5 6 7 8 8 8 8 7 6 6 5 5 5 5 6 7 7 7 7 7 7 7 7 7 7 7 7
14 13 12 11 12 12 11 10 9 8 7 7 7 7 7 9 9 9 8 7 7 7 9 9 9 8 7 8 7 7 7 7 6 3 1 0 2 2 2 2 2 2 2 2 3 3 4 4 4 4 4 5 6 6 6 6 6 5 6 7 7 7 7 7 7 6 5 4 4 5 6 7 8 8 8 7 7 6 6 6 6 6 6 6 6
14 13 12 12 12 12 12 11 10 9 8 7 6 6 7 9 10 9 9 9 9 9 10 10 8 6 6 6 6 7 8 8 7 5 3 2 2 2 2 3 3 2 2 1 2 3 5 4 4 4 4 5 5 6 6 7 6 6 7 7 7 6 5 5 4 4 4 4 5 6 7 7 7 6 6 5 5 5 5 5 6 6 6 6 7
14 13 12 12 13 13 12 12 10 10 9 7 6 6 8 9 10 10 9 10 10 10 10 10 8 6 6 5 5 6 7 7 6 6 5 3 2 2 2 2 2 2 2 2 1 3 5 5 4 4 4 5 5 6 7 7 7 7 7 6 6 5 5 4 4 5 5 6 6 6 5 5 5 4 4 4 5 5 5 5 6 6 6 7 7
14 13 12 12 12 13 13 12 11 10 9 7 6 7 8 8 9 10 10 10 11 12 11 10 9 8 8 7 7 7 7 5 5 6 5 4 3 2 1 1 1 2 2 2 1 2 4 5 3 3 5 5 5 6 6 7 8 7 7 6 6 6 6 6 5 5 5 5 5 5 5 5 4 5 5 5 6 6 6 6 6 7 7 7 7
15 14 13 11 12 12 13 13 12 11 10 8 7 7 7 8 8 10 11 11 12 13 12 12 11 10 10 10 10 9 7 5 5 5 5 4 4 3 3 2 2 2 2 2 2 2 2 3 1 2 4 3 3 3 4 5 6 6 6 6 6 6 6 6 6 5 5 5 5 5 5 5 6 6 7 7 7 7 7 7 7 8 8 8 7
17 16 14 12 11 12 13 13 13 12 11 10 8 7 8 8 8 9 11 12 12 13 12 13 13 12 11 11 11 10 9 7 7 7 7 7 6 5 5 5 4 4 3 3 3 3 2 1 2 2 2 2 2 2 2 2 3 3 4 5 5 5 5 5 5 4 5 5 6 6 6 7 7 8 8 8 8 8 8 8 8 8 7 7 7
18 17 15 14 12 12 13 13 13 13 12 11 10 9 8 8 9 9 11 12 12 11 12 12 12 12 12 12 12 11 11 10 10 10 10 10 9 8 7 7 6 4 3 4 4 4 4 3 3 3 1 1 1 1 2 2 2 2 2 3 4 4 4 5 5 5 5 6 6 7 7 7 8 8 8 8 8 8 8 8 8 7 7 7 6
19 18 17 15 14 13 13 14 14 13 13 12 10 10 9 9 9 9 10 12 13 12 12 12 12 12 11 12 13 13 12 13 13 13 12 12 12 10 8 9 9 6 5 5 6 7 7 7 6 5 4 3 2 0 1 1 1 2 2 3 3 4 5 5 6 6 6 7 7 7 8 7 7 7 8 8 9 9 9 9 8 7 7 7 7
19 18 18 17 16 15 15 14 14 15 14 12 11 10 9 9 9 9 9 11 12 13 12 12 12 13 13 13 14 14 14 13 13 13 13 12 12 11 10 11 12 11 8 8 10 9 10 10 9 8 7 6 5 4 2 1 2 2 2 3 4 4 5 6 7 7 7 7 7 8 8 8 7 7 8 8 9 9 9 9 8 8 7 7 7
21 19 18 18 18 17 16 16 16 15 15 13 12 11 10 10 10 10 9 10 11 11 12 12 12 13 14 14 15 16 15 13 12 13 14 14 14 15 14 14 15 14 11 11 12 11 10 11 11 10 9 9 8 6 5 4 3 3 3 4 4 5 5 6 7 8 9 9 9 9 9 9 9 8 9 9 9 9 10 9 9 9 8 8 8
23 21 19 18 18 18 17 17 17 16 15 14 13 12 12 11 11 11 10 10 10 10 10 10 10 11 11 12 14 16 16 14 13 13 14 15 16 17 17 17 18 18 16 15 14 13 11 10 10 11 11 11 10 9 8 7 5 5 5 5 6 6 6 7 8 9 10 10 11 10 10 10 10 10 10 10 10 10 11 10 10 10 9 9 9
23 21 20 18 18 18 18 17 17 16 16 15 14 13 13 13 12 11 11 10 11 11 10 9 9 9 9 11 13 15 15 15 15 15 15 15 17 17 18 19 20 20 19 18 18 16 12 10 10 11 11 11 11 11 10 9 8 8 9 9 9 9 9 9 9 10 10 11 12 12 12 12 12 12 12 12 12 12 12 12 11 11 11 10 10
22 21 20 20 19 18 18 18 18 17 16 16 16 15 14 14 13 13 12 11 11 11 10 10 10 9 9 10 11 13 13 14 16 16 17 17 17 17 18 18 20 20 20 20 20 18 14 12 11 11 11 11 11 11 11 11 11 10 12 13 12 11 11 11 11 11 12 12 13 14 14 14 14 13 13 13 13 13 13 13 13 13 12 12 12
22 21 21 21 20 19 19 19 19 18 18 17 17 16 16 16 15 14 13 12 11 11 10 10 10 9 9 10 11 12 12 12 14 14 16 17 17 18 18 18 19 20 21 21 20 17 14 12 11 9 9 10 10 10 11 12 12 12 14 15 15 14 14 14 14 14 14 14 14 15 15 16 16 15 15 15 15 15 15 15 15 14 14 14 14
24 22 22 22 22 21 21 20 19 19 20 19 18 17 17 17 17 16 14 13 13 12 11 11 10 10 10 10 10 10 11 12 12 12 13 14 15 16 17 17 18 20 22 23 22 18 14 13 12 11 10 10 11 11 12 13 12 13 15 16 17 17 16 16 17 17 17 17 17 16 16 17 17 17 17 17 17 17 17 17 16 16 16 16 16
25 24 23 23 23 23 23 21 20 20 20 20 20 19 19 19 18 17 16 15 15 14 13 13 12 12 12 11 11 10 10 11 12 13 13 14 13 14 15 17 18 20 21 24 24 20 15 13 13 12 12 12 13 14 15 15 15 15 16 17 18 19 19 19 20 20 20 20 19 19 18 18 18 18 18 18 18 18 18 18 18 18 18 18 18
27 26 25 24 24 24 24 23 22 22 22 22 21 21 21 21 20 19 18 17 17 16 15 15 14 14 14 14 13 12 11 11 12 13 14 15 15 14 15 17 18 19 20 23 26 24 19 17 17 16 17 17 17 18 18 17 17 18 18 19 19 19 20 21 21 22 22 22 22 22 21 20 20 20 20 19 19 19 19 20 20 20 20 19 19
28 27 26 25 25 25 25 24 23 23 24 23 23 22 22 22 22 21 20 20 19 18 17 16 16 16 16 16 16 14 13 13 13 13 13 14 16 16 17 18 18 20 21 23 28 29 26 24 23 22 21 22 21 21 21 20 20 21 21 22 22 22 23 23 23 23 23 24 24 24 23 23 22 21 21 22 21 20 21 21 21 21 21 21 21
29 29 28 26 26 25 25 25 24 24 24 24 24 23 23 23 23 23 22 21 21 20 19 18 18 18 18 18 18 17 16 16 15 14 14 14 16 17 18 19 20 21 22 24 28 32 31 28 26 26 25 26 25 24 23 24 23 24 25 25 25 25 25 25 26 25 25 25 24 25 25 24 24 23 23 24 24 23 23 23 23 23 23 23 23
30 30 29 28 27 26 26 26 25 24 25 25 25 24 24 24 24 24 23 23 22 21 20 20 19 19 19 20 19 18 18 18 18 17 17 16 17 17 18 19 21 21 23 25 28 32 33 31 29 28 28 28 28 27 26 27 26 27 28 28 28 29 29 29 29 28 27 26 26 26 26 25 25 25 25 25 26 26 25 25 24 24 24 24 24
29 29 29 29 28 28 27 26 25 25 25 26 26 25 24 24 24 24 24 23 23 22 21 21 20 20 20 21 20 19 19 20 19 19 19 19 19 19 19 20 21 21 22 24 27 30 33 33 31 29 28 28 29 28 27 28 28 29 30 30 31 32 32 32 32 32 30 29 29 28 28 27 27 26 26 26 27 28 27 27 26 25 25 25 25
30 29 28 28 29 29 28 27 27 26 26 26 27 26 26 25 24 24 24 24 23 23 22 21 21 21 21 22 21 20 20 21 21 20 21 21 21 21 22 22 22 23 23 24 27 29 31 34 33 30 29 30 30 29 29 30 30 30 31 32 32 33 34 34 35 34 33 32 32 31 31 30 29 28 28 28 28 29 29 29 28 27 27 26 26
30 30 29 28 29 31 30 29 28 28 28 28 28 28 27 27 26 25 25 25 25 24 24 23 23 23 23 23 22 21 22 23 22 22 21 22 22 22 23 23 23 24 24 26 27 29 31 34 35 33 32 32 32 31 30 32 33 33 33 33 33 34 34 34 36 36 35 35 35 34 34 34 33 31 30 30 30 30 31 31 31 30 29 28 28
31 30 30 29 30 31 31 30 29 30 29 29 29 29 29 29 28 27 27 27 27 27 26 25 25 25 24 24 23 23 24 24 23 22 22 22 22 23 23 23 24 25 26 26 27 29 32 34 36 36 35 34 35 34 32 33 35 36 35 35 35 35 35 36 36 36 36 36 36 36 36 36 35 35 34 32 32 31 32 32 33 32 32 31 30
31 31 31 30 30 30 31 31 31 31 31 31 31 30 30 30 29 29 28 28 28 28 28 27 27 27 27 26 26 25 25 24 23 22 22 22 23 24 24 24 25 26 27 28 29 31 33 35 36 38 38 37 37 36 35 35 37 38 37 37 38 37 36 37 37 36 36 36 36 36 36 37 37 37 36 35 34 34 34 34 34 34 34 34 33
31 31 31 31 31 31 31 32 32 32 32 33 33 32 32 31 30 30 29 29 29 29 29 29 29 29 28 28 28 27 27 26 25 24 24 24 25 25 25 25 27 29 30 30 31 32 34 36 37 38 39 40 39 39 38 38 39 39 38 39 41 41 39 39 40 39 37 36 35 35 35 36 37 37 37 38 37 37 37 36 36 36 36 36 35
31 31 31 31 31 31 32 32 32 33 33 34 34 33 33 32 32 31 31 30 30 30 30 30 29 29 28 28 28 28 28 27 27 27 26 26 27 27 26 27 29 30 31 32 32 33 34 36 37 38 39 41 40 39 39 38 39 39 39 41 43 42 41 42 42 40 39 37 36 35 34 34 35 37 37 38 38 38 39 39 39 38 37 38 38
31 31 31 31 31 32 32 32 33 33 34 35 34 33 33 33 32 32 32 31 31 31 30 30 30 29 29 28 28 28 28 28 27 27 27 27 27 27 27 28 29 30 31 32 32 32 34 36 37 37 40 42 40 39 40 40 39 39 39 40 41 41 42 43 43 41 39 37 36 35 34 33 34 35 36 37 37 37 38 39 40 40 39 39 39
31 31 31 31 32 32 32 32 33 34 35 35 34 33 33 32 32 32 32 31 31 31 31 31 31 30 30 29 29 28 28 28 27 27 27 26 26 26 26 27 27 28 30 31 31 32 33 36 37 38 40 42 41 39 40 40 39 39 39 40 42 42 43 45 47 44 40 39 39 38 36 34 34 36 37 37 35 35 36 36 36 38 40 40 39
31 31 32 32 32 32 32 32 32 33 34 34 34 33 32 32 32 31 31 31 31 31 31 31 31 31 31 30 29 29 28 27 27 27 26 26 25 25 25 25 25 26 27 28 30 31 33 35 38 39 40 42 41 40 39 39 39 41 43 44 43 43 44 46 48 47 44 43 40 38 37 36 35 38 40 40 38 36 37 37 36 37 39 40 40
31 32 33 33 33 32 33 33 33 33 34 33 33 33 32 32 31 31 31 32 32 32 32 32 32 31 31 30 29 29 28 27 27 26 26 25 25 25 25 25 25 25 25 27 28 30 32 35 39 42 40 40 44 44 41 41 43 45 47 45 44 46 48 48 48 48 47 45 40 39 43 44 41 44 46 45 43 41 41 41 40 39 39 39 41
33 33 33 33 33 33 33 34 33 33 34 33 32 32 32 31 31 31 31 31 32 32 32 32 32 31 30 30 30 28 27 27 27 26 25 25 25 25 26 26 25 25 26 27 27 29 32 35 39 43 41 41 44 45 44 45 49 50 48 45 46 50 50 49 51 50 47 48 47 46 51 50 46 50 52 47 46 47 45 44 43 41 39 39 40
33 32 32 33 33 34 34 34 34 35 34 33 32 32 31 31 31 31 31 31 31 32 31 31 31 30 30 30 30 28 27 27 26 25 24 24 25 27 28 28 28 28 29 29 27 29 32 34 38 42 42 40 42 43 44 47 51 51 48 45 47 50 49 50 54 52 49 50 50 50 55 54 49 53 55 50 49 51 49 46 46 44 43 41 40
33 32 32 32 32 33 33 34 34 35 34 33 32 32 31 31 31 31 31 31 31 31 30 30 30 29 29 29 29 28 27 26 24 23 23 24 26 28 30 31 31 31 33 32 30 30 32 34 37 38 38 39 39 42 44 45 47 48 48 48 49 48 50 52 54 53 50 50 51 52 57 57 53 54 56 53 52 54 53 51 50 48 46 44 41
34 34 33 32 32 32 32 33 34 34 34 33 32 32 31 31 31 31 30 30 30 30 29 28 28 28 27 27 27 27 27 25 23 21 22 24 28 30 32 33 34 35 36 35 32 32 32 33 35 36 38 39 40 42 44 43 43 42 44 49 49 47 49 52 53 54 53 51 53 54 54 56 56 56 56 55 55 56 55 55 54 52 49 46 43
34 33 32 31 31 32 32 32 32 33 33 32 31 31 30 30 30 30 29 29 29 28 28 27 26 26 26 25 25 26 25 23 21 21 22 26 30 31 32 34 36 38 37 35 33 33 34 35 37 39 41 43 43 44 44 43 42 40 41 47 48 46 49 53 53 55 54 52 53 53 53 56 57 55 55 55 55 56 56 55 55 55 52 47 45
31 30 30 30 31 30 30 30 30 31 31 30 30 30 29 28 28 28 28 28 28 27 26 26 25 24 24 23 23 23 24 22 21 22 24 27 29 30 31 34 37 37 34 33 34 34 34 36 39 39 40 41 42 44 46 46 47 46 44 47 49 46 47 50 51 52 53 53 51 50 52 55 55 53 53 51 52 55 55 52 53 55 54 49 46
Wind_Direction
153 154 152 150 139 132 132 130 131 122 116 113 122 140 150 178 225 35 45 38 16 9 11 36 58 66 98 110 116 120 114 107 101 104 117 136 157 163 153 153 146 126 107 91 91 126 146 158 169 170 164 134 62 52 58 68 87 124 129 129 122 317 300 301 291 296 303 305 313 320 321 323 327 331 338 345 343 338 340 343 344 349 350 353 359
155 157 159 164 155 142 141 144 140 126 116 106 113 125 148 185 192 123 85 75 50 31 12 10 40 65 105 118 130 137 128 115 109 108 111 125 150 162 163 167 160 154 146 105 69 103 132 154 172 186 193 210 236 316 336 345 342 336 338 336 338 334 323 317 314 316 319 320 320 320 320 321 323 323 326 329 327 326 329 330 333 341 345 347 349
156 158 163 174 168 154 151 146 139 127 114 105 124 137 169 208 198 152 126 111 92 75 65 53 82 99 115 118 119 126 125 121 122 127 126 119 130 146 158 172 170 191 186 114 45 92 118 139 157 173 186 204 223 237 254 257 266 277 301 309 305 307 313 316 316 318 321 322 322 322 322 323 324 321 318 320 322 323 326 326 327 333 336 338 338
162 164 169 177 176 170 166 146 146 141 122 168 184 190 196 213 205 167 143 122 100 92 97 106 116 111 108 104 97 95 94 92 93 115 130 125 120 118 131 159 177 194 186 138 253 253 110 142 147 147 162 179 202 216 235 249 262 272 281 285 285 290 297 303 304 307 312 317 318 317 320 322 323 321 317 317 318 320 321 320 320 322 325 327 329
169 171 175 184 194 195 181 161 174 188 235 250 235 224 216 218 202 175 157 136 117 114 118 125 133 128 115 101 91 87 85 78 67 72 93 122 133 116 106 115 151 186 191 194 236 244 246 245 242 248 225 164 182 208 229 244 260 269 279 281 284 289 291 295 298 302 308 310 312 311 313 314 315 314 311 310 311 312 314 314 314 317 320 321 322
175 177 182 193 207 203 180 171 180 188 230 252 245 238 232 224 199 177 167 156 155 157 154 156 153 145 133 115 102 94 87 79 66 52 49 78 129 143 148 112 114 144 173 205 242 249 246 250 255 257 255 254 251 253 252 257 267 270 278 281 281 285 287 293 298 300 305 308 310 309 307 306 306 304 303 305 307 307 309 311 313 315 318 319 319
187 186 189 197 207 197 178 182 186 186 216 236 236 240 239 229 199 180 177 174 174 177 184 188 178 163 150 138 122 107 92 77 66 54 37 26 94 165 184 157 132 132 154 202 232 242 246 247 252 257 258 261 260 262 263 267 276 277 279 282 284 288 291 295 301 304 306 308 308 309 309 306 304 302 300 303 305 306 309 311 313 316 319 320 322
199 196 196 198 204 196 184 196 201 193 210 227 233 239 236 225 200 188 188 183 180 186 198 197 182 173 164 152 142 123 102 79 65 55 46 53 115 170 187 189 192 205 250 265 257 252 254 248 250 257 261 267 268 266 263 266 275 280 281 284 288 291 292 294 301 307 309 308 309 310 311 310 310 309 307 306 306 309 312 314 316 319 321 322 324
202 201 198 196 203 203 198 208 214 211 224 241 241 237 226 213 202 199 200 195 194 192 196 195 181 174 170 164 159 150 134 98 70 61 65 81 114 159 196 212 222 234 255 274 283 278 272 263 260 260 265 272 275 273 268 271 278 284 285 285 288 292 295 297 301 305 306 306 308 310 311 311 312 312 311 310 308 311 315 318 322 325 327 328 330
205 207 201 196 204 211 213 221 222 216 225 243 242 239 223 211 209 207 208 212 209 200 197 200 195 187 181 178 178 176 167 145 103 86 86 93 117 160 209 226 235 241 246 258 276 291 292 285 275 264 266 274 279 279 276 279 283 285 288 286 289 292 294 298 299 300 302 304 305 309 312 311 312 314 314 314 315 319 325 328 333 336 338 341 340
211 215 211 206 213 220 224 232 238 229 223 233 236 238 231 219 218 218 217 225 219 204 203 207 209 205 197 194 196 192 183 168 139 115 99 88 97 183 227 233 244 241 237 252 276 296 300 294 285 270 265 270 276 279 276 278 280 279 284 287 289 290 290 293 292 293 298 300 301 305 311 312 317 325 327 330 334 337 340 341 343 346 349 351 349
216 221 221 219 223 229 236 241 250 242 230 235 237 241 246 234 226 229 223 221 212 191 195 205 208 209 204 201 204 199 192 186 165 142 117 60 23 235 217 222 240 243 244 277 287 288 292 286 282 276 270 270 275 279 278 278 277 276 280 282 284 285 286 287 287 290 294 296 300 308 314 320 329 337 338 342 344 344 345 345 346 348 350 352 353
220 223 225 227 229 233 238 240 245 245 236 237 237 241 255 255 240 239 230 213 204 181 184 196 198 200 201 201 204 203 201 199 186 162 129 49 45 191 199 199 194 235 268 306 306 300 293 282 279 276 270 268 272 277 280 283 284 284 286 286 286 286 284 281 280 285 292 296 304 312 317 324 332 335 333 333 333 334 334 334 336 337 339 342 344
224 227 229 231 232 234 237 238 241 244 236 229 233 233 242 252 247 246 238 217 208 190 182 187 191 197 205 207 206 210 215 214 210 194 114 33 147 173 176 146 133 122 106 60 16 348 323 304 300 289 272 264 266 267 270 278 281 280 285 288 287 287 284 279 276 278 285 291 295 302 309 316 319 319 318 320 321 322 322 323 327 330 334 338 340
226 230 232 233 234 235 234 236 236 239 238 231 236 235 237 247 247 241 233 219 209 195 186 186 191 196 202 206 212 226 237 236 231 224 210 193 155 146 133 115 106 119 122 71 28 7 353 335 325 316 293 273 267 263 262 267 266 267 281 287 283 282 282 279 276 274 273 275 281 292 301 306 310 312 314 317 320 321 323 327 331 335 339 342 347
224 227 231 234 237 235 233 235 236 236 239 235 235 238 240 248 249 237 225 221 213 198 191 191 195 205 207 208 223 241 248 247 238 225 221 199 155 128 116 113 101 123 144 97 29 5 360 349 329 322 306 288 275 267 266 266 259 268 285 290 286 284 285 282 276 273 273 276 285 292 299 304 307 312 316 320 324 326 329 333 336 338 341 344 347
218 222 227 232 238 237 232 234 236 235 239 242 237 234 236 244 249 238 223 222 220 211 207 205 207 223 237 243 251 260 266 261 239 225 229 221 184 148 125 115 99 125 161 163 53 2 360 355 335 318 304 289 280 270 267 265 261 270 285 288 288 286 286 287 282 283 287 288 290 293 296 299 302 307 311 313 315 317 321 326 327 330 333 336 338
214 217 221 228 235 236 233 234 238 236 237 244 240 233 233 239 245 240 227 224 224 222 222 224 224 231 246 261 269 280 293 282 239 228 238 235 218 202 178 152 129 133 162 193 244 337 354 357 344 325 316 296 283 277 271 267 263 268 278 282 286 288 289 290 289 289 289 288 289 289 289 290 294 296 296 297 300 303 307 311 314 317 320 323 324
212 213 214 223 232 236 236 236 239 240 237 239 239 236 234 234 241 240 233 227 226 225 226 233 239 241 248 259 269 279 291 286 252 246 262 261 241 222 221 235 222 194 179 216 262 283 328 346 319 324 341 326 299 293 288 279 270 269 273 278 285 289 290 290 289 287 287 288 289 288 288 291 293 291 292 293 294 297 300 303 307 311 313 315 316
212 212 212 218 228 234 237 237 240 242 240 238 237 237 232 232 238 237 232 227 226 226 225 233 242 249 256 259 262 267 274 278 268 263 272 282 278 256 249 260 251 237 234 245 264 268 278 292 267 287 1 21 1 342 336 318 297 287 285 287 290 290 289 290 291 290 290 293 294 293 293 292 292 292 292 293 294 295 297 300 304 308 310 311 312
214 213 213 216 224 232 238 240 241 242 242 241 238 238 234 233 239 238 233 228 227 228 225 231 240 248 260 260 254 256 261 263 264 263 265 271 275 273 271 276 269 255 254 265 275 280 280 276 267 265 272 343 14 42 47 31 357 337 314 302 297 291 289 288 289 291 291 293 294 295 294 293 293 294 294 293 294 295 296 298 300 301 303 303 306
216 215 215 216 220 227 235 239 241 242 242 242 239 240 239 238 243 243 238 232 230 232 231 233 237 242 256 262 255 254 257 259 263 264 263 264 269 276 282 284 280 274 268 276 283 285 283 278 271 267 263 267 271 225 71 47 13 357 331 308 296 290 288 287 286 287 287 290 292 293 292 292 292 293 293 292 290 291 291 292 292 291 293 294 297
219 219 218 217 218 222 231 236 239 241 241 241 239 241 241 240 244 243 237 234 232 235 237 237 239 241 248 256 255 255 258 262 268 270 269 269 274 283 292 293 289 284 278 278 280 278 277 275 269 264 262 262 261 255 260 289 324 337 332 318 307 297 291 288 287 287 288 288 287 287 287 287 288 288 289 288 287 288 287 287 286 284 284 286 288
222 222 220 218 219 221 227 233 236 238 239 240 239 239 241 239 241 240 233 230 229 230 234 236 240 242 245 250 251 252 254 258 265 270 270 270 274 283 290 291 289 289 289 285 283 282 279 274 267 260 255 256 258 257 259 269 284 302 315 321 319 315 305 296 291 290 291 291 287 284 283 283 285 284 284 285 285 286 285 285 284 283 282 283 285
223 223 221 220 221 222 227 233 236 238 240 241 240 240 242 240 240 241 235 231 230 230 234 237 240 243 246 249 249 250 253 254 256 261 264 265 268 277 285 286 287 291 292 288 287 290 290 285 276 266 257 256 258 257 258 260 263 274 288 298 304 308 311 306 299 293 291 291 289 284 282 281 281 282 282 282 283 283 284 284 284 283 283 283 283
226 226 225 225 227 227 230 235 237 239 240 241 241 240 243 245 244 243 242 239 238 240 244 247 248 249 250 253 251 252 254 255 255 256 260 264 266 274 282 285 287 290 291 290 291 293 297 299 289 274 264 260 260 262 263 263 263 268 276 282 285 290 297 301 301 298 294 291 288 284 282 281 279 280 280 280 280 280 281 281 281 281 280 280 281
231 231 231 231 232 231 233 235 236 237 239 241 241 240 242 246 248 247 246 245 245 246 249 253 256 259 262 264 261 257 256 257 257 257 261 266 270 273 276 279 283 286 288 288 290 293 299 302 293 279 272 270 268 269 271 272 270 269 272 276 279 281 285 291 294 297 297 294 290 285 282 281 279 278 277 277 277 276 276 276 276 276 277 277 279
235 235 234 234 234 234 235 237 238 238 239 240 241 241 242 246 250 251 249 248 250 250 252 256 260 267 270 272 270 265 262 261 262 262 266 272 276 275 272 270 273 280 285 287 290 295 301 302 298 294 291 289 288 285 281 280 278 276 274 274 277 279 282 285 287 290 293 295 294 289 284 282 280 278 276 274 273 271 271 271 272 273 273 274 275
236 236 236 236 236 236 237 239 240 241 240 239 241 242 244 246 249 253 252 252 254 254 255 258 261 266 268 270 271 268 265 263 266 268 271 277 279 277 272 266 265 272 279 286 294 301 303 304 306 309 311 308 305 301 295 293 293 288 283 280 280 281 283 284 285 286 287 289 291 292 289 285 282 280 276 272 268 267 267 268 269 269 270 272 273
237 237 237 237 237 237 238 239 240 241 240 239 240 242 245 247 249 252 253 253 254 254 255 257 259 262 264 265 268 269 266 265 268 270 271 276 279 277 273 268 265 267 272 281 292 301 306 307 311 313 313 311 306 303 299 298 298 293 289 286 282 281 283 283 283 282 282 282 284 287 288 287 283 280 276 271 266 264 264 265 266 267 268 269 271
237 237 236 236 237 237 238 239 239 239 239 239 239 241 244 247 249 251 252 253 254 254 255 257 258 259 261 262 264 268 271 272 272 273 274 277 278 278 274 271 270 270 270 274 282 293 301 303 305 306 304 304 302 300 298 297 296 293 290 288 285 282 281 280 279 279 279 279 279 281 283 285 284 280 274 269 265 264 264 265 265 266 267 268 269
236 237 236 235 235 236 237 239 238 237 237 238 238 240 242 245 248 250 251 253 255 256 256 257 257 258 260 262 264 267 271 273 274 275 278 280 280 279 276 274 273 273 272 270 274 286 295 296 298 301 300 300 299 297 297 296 295 293 291 290 289 286 283 281 281 280 279 279 279 279 280 282 283 281 275 269 265 264 265 265 266 266 267 267 268
238 238 237 234 233 234 235 236 237 236 236 236 237 238 241 244 247 249 251 252 254 256 257 257 257 257 259 260 263 265 268 270 271 273 275 277 280 281 280 278 277 276 275 273 275 284 292 294 296 298 299 298 297 297 297 297 295 294 292 291 289 287 285 283 282 281 280 280 279 279 280 281 282 282 277 271 266 264 264 265 266 268 268 268 268
240 240 238 235 233 234 233 234 236 235 234 234 236 237 239 243 246 249 251 252 254 256 257 257 257 258 260 261 263 264 266 268 270 271 273 275 277 280 281 282 282 281 280 279 279 283 291 296 297 298 299 298 297 298 298 296 296 294 292 291 290 288 286 285 283 281 280 280 279 278 278 278 279 280 278 273 267 265 265 265 266 268 269 269 268
241 240 238 237 235 234 234 234 235 235 234 233 234 235 237 241 245 249 252 253 255 256 257 258 259 261 262 264 265 266 267 268 270 273 275 277 278 280 282 282 283 284 285 284 283 285 290 296 298 299 301 300 299 299 298 296 294 292 290 290 289 288 287 286 284 283 281 279 278 277 276 275 275 276 276 274 269 267 266 266 266 268 269 269 268
243 241 239 238 236 236 235 235 234 234 233 232 233 233 234 237 242 246 250 253 255 256 257 259 261 263 264 265 267 268 270 271 273 275 277 279 281 282 283 284 284 286 287 286 286 287 290 293 297 300 301 300 299 299 299 297 295 294 292 290 287 286 285 284 284 284 283 281 278 277 276 274 272 271 272 272 270 268 267 267 267 268 268 268 267
245 242 241 240 237 236 235 234 234 233 233 233 233 233 233 235 239 243 247 251 254 256 258 260 262 264 266 267 268 270 271 273 274 277 279 281 283 283 284 285 286 287 287 287 287 288 288 290 294 298 298 298 297 297 297 297 296 295 293 291 289 287 285 284 283 283 284 283 282 280 278 276 274 272 271 270 269 269 268 268 268 268 268 267 266
245 244 243 241 239 237 235 234 234 234 233 234 235 235 235 236 238 241 245 248 251 254 257 259 262 264 266 268 269 270 271 274 276 278 279 280 281 283 284 286 287 288 288 288 289 289 289 291 293 295 296 296 296 296 296 296 296 295 294 292 290 288 288 288 286 286 286 286 286 285 284 281 279 276 274 272 270 269 269 268 268 268 268 267 265
246 245 243 242 241 239 238 236 236 235 235 235 236 236 237 238 239 241 244 247 250 252 255 258 261 263 266 268 269 270 272 274 276 278 278 279 280 282 283 285 286 287 288 289 290 291 292 293 294 295 295 296 295 295 296 297 296 295 295 295 294 292 293 292 291 291 290 289 289 288 287 286 283 280 277 274 270 269 268 267 267 266 265 265 263
245 245 244 244 244 243 241 239 238 237 237 237 237 236 237 238 240 243 245 248 250 253 255 257 259 262 265 267 268 270 271 273 275 277 277 279 281 282 283 284 286 287 289 290 292 293 294 294 295 295 295 296 296 296 297 297 296 296 298 299 297 295 296 296 295 295 295 294 293 291 288 287 285 284 281 277 274 270 268 267 265 264 262 261 260
245 245 245 246 246 245 243 242 241 240 240 239 238 238 239 240 241 244 246 249 251 254 256 258 259 262 264 266 268 269 271 273 274 276 277 279 281 282 283 284 286 288 290 292 293 295 295 295 295 295 295 295 296 297 298 297 298 298 299 299 297 297 300 299 297 297 297 297 296 294 291 290 289 287 285 282 279 275 270 267 265 265 262 260 258
245 245 245 246 246 245 245 244 244 243 242 241 240 240 242 243 244 246 248 250 253 255 257 259 261 263 265 268 270 271 273 274 275 277 278 280 282 283 284 285 287 289 292 293 295 295 295 295 294 295 295 295 296 299 299 300 301 300 299 299 299 300 301 300 298 299 299 300 299 297 297 298 297 294 291 287 284 280 275 270 268 267 264 261 258
244 245 245 245 245 245 246 245 245 245 244 243 243 243 244 245 247 249 250 252 255 257 259 261 263 265 267 269 271 273 275 276 277 279 282 283 285 286 285 286 288 290 292 294 295 295 295 295 295 296 295 296 299 301 302 303 304 302 301 300 299 299 300 300 300 300 300 301 301 300 301 303 299 294 289 283 279 277 274 271 269 267 265 261 257
243 244 244 244 244 244 246 246 246 246 245 244 245 246 246 247 249 251 253 255 257 259 261 263 264 267 269 272 274 276 278 279 282 284 286 286 288 288 289 289 289 289 291 293 294 295 295 295 296 295 295 297 301 302 302 304 304 302 300 297 296 296 298 296 295 296 298 299 298 297 297 295 287 280 276 272 268 265 263 262 259 257 257 256 254
243 244 244 244 244 244 245 246 246 246 246 245 246 247 247 249 250 252 255 257 259 261 263 264 266 269 271 274 276 278 280 282 285 287 288 289 290 291 292 292 290 291 293 296 297 297 297 296 295 295 297 300 301 301 303 303 300 296 295 294 295 296 294 291 291 295 295 292 289 289 288 285 279 274 273 270 267 263 259 258 255 253 251 250 248
244 244 244 244 244 243 243 244 245 246 246 246 246 247 248 250 251 253 256 258 260 262 264 266 268 270 273 275 278 280 281 283 286 288 289 291 293 294 295 295 294 295 297 299 299 299 299 299 296 297 300 302 301 300 303 302 296 292 291 294 298 297 293 291 293 293 289 285 284 282 281 284 285 280 277 276 275 272 266 262 261 260 259 256 251
244 245 246 246 246 245 244 244 245 245 245 245 247 248 249 250 252 255 256 258 261 263 264 266 268 270 273 276 278 280 282 283 285 287 289 292 294 295 296 296 297 298 299 301 300 299 300 299 297 298 300 300 298 298 301 302 300 297 293 294 299 296 291 291 292 289 284 282 283 278 277 285 290 283 282 284 283 279 274 267 264 261 259 257 254
245 246 247 247 247 247 246 247 247 246 245 246 247 249 250 252 254 256 258 260 262 263 264 266 268 270 273 275 277 279 281 283 285 287 290 292 293 294 295 295 297 298 298 299 298 296 296 294 294 295 294 292 293 295 298 300 303 303 298 295 297 295 290 290 290 290 286 282 283 281 277 282 286 282 283 287 285 281 279 274 270 265 258 255 253
243 244 244 245 246 247 247 248 248 247 246 246 248 249 251 253 255 257 258 260 263 264 265 266 268 271 272 274 277 279 281 283 284 287 291 292 292 293 294 295 296 295 296 298 299 297 295 293 292 290 288 290 293 296 299 300 303 305 298 293 295 295 290 287 285 288 289 285 287 286 278 278 283 280 279 285 285 282 280 278 276 272 264 259 255
243 244 245 246 246 247 247 246 247 248 247 247 249 250 251 253 255 256 258 261 263 264 265 266 267 269 270 273 276 278 279 281 284 288 291 291 290 291 293 295 295 294 296 299 299 298 297 295 293 294 295 298 301 302 304 304 306 306 298 295 298 296 290 285 283 286 287 284 286 286 277 276 282 279 276 279 281 279 280 280 280 275 268 261 257
244 244 245 247 247 247 246 246 247 248 248 248 250 250 251 252 254 255 257 260 261 262 263 265 266 268 270 272 274 275 277 281 285 287 288 288 289 291 293 293 292 293 297 297 294 292 292 292 295 300 304 307 308 308 309 310 311 310 306 303 303 298 291 289 287 285 282 280 284 284 278 277 280 277 273 271 270 274 277 278 278 275 269 264 258